Brno, Czech Republic

12:29 AM CET on February 06, 2016 (GMT +0100)
Turany

Weather History for LKTB - October, 2012

Change the Weather History Date:

Wednesday, October 24, 2012

  Actual Average Record
Temperature  
Mean Temperature 52 °F -  
Max Temperature 57 °F 47 °F - ()
Min Temperature 46 °F 35 °F - ()
Degree Days  
Heating Degree Days 14    
Growing Degree Days 2 (Base 50)    
Moisture  
Dew Point 45 °F    
Average Humidity 80    
Maximum Humidity 87    
Minimum Humidity 63    
Precipitation  
Precipitation 0.00 in 0.05 in - ()
Sea Level Pressure  
Sea Level Pressure 30.11 in    
Wind  
Wind Speed 5 mph ()    
Max Wind Speed 9 mph    
Max Gust Speed -    
Visibility 4.1 miles    
Events      
T = Trace of Precipitation, MM = Missing Value Source: Averaged Metar Reports

Daily Weather History Graph

Daily Weather History Graph

Search for Another Location

Airport or City:

Trip Planner

Search our weather history database for the weather conditions in past years. The results will help you decide how hot, cold, wet, or windy it might be!

Date:

Astronomy

Oct. 24, 2012 Rise Set
Actual Time 7:28 AM CEST 5:45 PM CEST
Civil Twilight 6:55 AM CEST 6:18 PM CEST
Nautical Twilight 6:18 AM CEST 6:55 PM CEST
Astronomical Twilight 5:41 AM CEST 7:31 PM CEST
Moon 3:15 PM CEST (10/24) 1:38 AM CEST (10/24)
Length of Visible Light 11h 22m
Length of Day
10h 17m
Waxing Gibbous, 73% of the Moon is Illuminated
Oct 24
Waxing Gibbous
Oct 29
Full
Nov 7
Last Quarter
Nov 13
New
Nov 20
First Quarter

Hourly Weather History & Observations

Time (CEST) Temp. Windchill Dew Point Humidity Pressure Visibility Wind Dir Wind Speed Gust Speed Precip Events Conditions
12:00 AM 48.2 °F - 42.8 °F 82% 30.21 in 5.6 mi NNW 5.8 mph - N/A   Mostly Cloudy
12:30 AM 48.2 °F - 42.8 °F 82% 30.21 in 5.6 mi NNW 5.8 mph - N/A   Mostly Cloudy
1:00 AM 48.2 °F - 42.8 °F 82% 30.21 in 5.6 mi NNW 6.9 mph - N/A   Mostly Cloudy
1:30 AM 48.2 °F - 42.8 °F 82% 30.18 in 5.0 mi NNW 8.1 mph - N/A   Scattered Clouds
2:00 AM 47 °F - 42 °F 78% 30.22 in 5 mi NW 8.9 mph - -   Mist
2:00 AM 46.4 °F 42.4 °F 42.8 °F 87% 30.18 in 5.0 mi NW 8.1 mph - N/A   Partly Cloudy
2:30 AM 46.4 °F 42.9 °F 42.8 °F 87% 30.18 in 6.2 mi NW 6.9 mph - N/A   Mostly Cloudy
3:00 AM 46.4 °F 43.5 °F 42.8 °F 87% 30.18 in 5.0 mi NW 5.8 mph - N/A   Mostly Cloudy
3:30 AM 46.4 °F 43.5 °F 42.8 °F 87% 30.15 in 5.0 mi NW 5.8 mph - N/A   Mostly Cloudy
4:00 AM 46.4 °F 42.9 °F 42.8 °F 87% 30.15 in 5.0 mi NW 6.9 mph - N/A   Mostly Cloudy
4:30 AM 46.4 °F 42.9 °F 42.8 °F 87% 30.15 in 5.6 mi NW 6.9 mph - N/A   Overcast
5:00 AM 48.2 °F - 42.8 °F 82% 30.15 in 5.0 mi NNW 5.8 mph - N/A   Mostly Cloudy
5:30 AM 48.2 °F - 42.8 °F 82% 30.15 in 5.0 mi NNW 4.6 mph - N/A   Mostly Cloudy
6:00 AM 48.2 °F - 44.6 °F 87% 30.15 in 4.3 mi NNW 4.6 mph - N/A   Mostly Cloudy
6:30 AM 48.2 °F - 44.6 °F 87% 30.12 in 6.2 mi NW 5.8 mph - N/A   Overcast
7:00 AM 48.2 °F - 44.6 °F 87% 30.12 in 5.0 mi NW 5.8 mph - N/A   Mostly Cloudy
7:30 AM 48.2 °F - 44.6 °F 87% 30.12 in 3.7 mi Variable 1.2 mph - N/A   Overcast
8:00 AM 49 °F - 44 °F 78% 30.17 in 4 mi North 4.5 mph - -   Mist
8:00 AM 48.2 °F - 44.6 °F 87% 30.15 in 3.7 mi North 3.5 mph - N/A   Overcast
8:30 AM 50.0 °F - 44.6 °F 82% 30.15 in 3.7 mi North 3.5 mph - N/A   Overcast
9:00 AM 50.0 °F - 44.6 °F 82% 30.12 in 3.7 mi Variable 2.3 mph - N/A   Mostly Cloudy
9:30 AM 50.0 °F - 44.6 °F 82% 30.12 in 3.7 mi North 4.6 mph - N/A   Overcast
10:00 AM 51.8 °F - 44.6 °F 76% 30.12 in 4.3 mi Variable 3.5 mph - N/A   Mostly Cloudy
10:30 AM 51.8 °F - 44.6 °F 76% 30.12 in 3.7 mi Variable 2.3 mph - N/A   Mostly Cloudy
11:00 AM 51.8 °F - 44.6 °F 76% 30.12 in 3.7 mi Variable 2.3 mph - N/A   Mostly Cloudy
11:30 AM 53.6 °F - 44.6 °F 72% 30.12 in 3.7 mi Variable 1.2 mph - N/A   Mostly Cloudy
12:00 PM 53.6 °F - 44.6 °F 72% 30.12 in 3.7 mi South 3.5 mph - N/A   Mostly Cloudy
12:30 PM 53.6 °F - 44.6 °F 72% 30.12 in 3.7 mi Variable 2.3 mph - N/A   Mostly Cloudy
1:00 PM 53.6 °F - 46.4 °F 77% 30.12 in 3.7 mi South 3.5 mph - N/A   Mostly Cloudy
1:30 PM 53.6 °F - 44.6 °F 72% 30.09 in 4.3 mi South 4.6 mph - N/A   Mostly Cloudy
2:00 PM 54 °F - 45 °F 64% 30.12 in 4 mi South 2.2 mph - -   Mist
2:00 PM 55.4 °F - 44.6 °F 67% 30.09 in 4.3 mi South 3.5 mph - N/A   Mostly Cloudy
2:30 PM 55.4 °F - 44.6 °F 67% 30.09 in 4.3 mi Variable 2.3 mph - N/A   Scattered Clouds
3:00 PM 57.2 °F - 44.6 °F 63% 30.09 in 4.3 mi SSW 3.5 mph - N/A   Partly Cloudy
3:30 PM 57.2 °F - 44.6 °F 63% 30.06 in 5.0 mi Variable 3.5 mph - N/A   Partly Cloudy
4:00 PM 55.4 °F - 44.6 °F 67% 30.06 in 5.0 mi SSE 3.5 mph - N/A   Scattered Clouds
4:30 PM 55.4 °F - 44.6 °F 67% 30.06 in 5.0 mi South 3.5 mph - N/A   Partly Cloudy
5:00 PM 53.6 °F - 46.4 °F 77% 30.06 in 4.3 mi South 5.8 mph - N/A   Partly Cloudy
5:30 PM 51.8 °F - 46.4 °F 82% 30.06 in 3.7 mi South 5.8 mph - N/A   Partly Cloudy
6:00 PM 51.8 °F - 46.4 °F 82% 30.06 in 3.1 mi South 4.6 mph - N/A   Mostly Cloudy
6:30 PM 51.8 °F - 46.4 °F 82% 30.06 in 3.1 mi South 4.6 mph - N/A   Mostly Cloudy
7:00 PM 50.0 °F - 46.4 °F 87% 30.06 in 3.7 mi South 4.6 mph - N/A   Overcast
7:24 PM 50.0 °F - 46.4 °F 87% 30.06 in 3.1 mi South 4.6 mph - N/A   Overcast
7:30 PM 50.0 °F - 46.4 °F 87% 30.06 in 3.1 mi South 4.6 mph - N/A   Overcast
8:00 PM 50 °F - 46 °F 81% 30.08 in 3 mi South 4.5 mph - -   Mist
8:00 PM 50.0 °F - 46.4 °F 87% 30.06 in 3.1 mi South 3.5 mph - N/A   Overcast
8:30 PM 50.0 °F - 46.4 °F 87% 30.06 in 2.8 mi SSE 2.3 mph - N/A   Overcast
9:00 PM 50.0 °F - 46.4 °F 87% 30.06 in 2.8 mi South 2.3 mph - N/A   Overcast
9:30 PM 50.0 °F - 46.4 °F 87% 30.06 in 2.8 mi South 2.3 mph - N/A   Overcast
10:00 PM 50.0 °F - 46.4 °F 87% 30.06 in 2.8 mi South 3.5 mph - N/A   Overcast
10:30 PM 50.0 °F - 46.4 °F 87% 30.06 in 2.8 mi South 3.5 mph - N/A   Overcast
11:00 PM 50.0 °F - 44.6 °F 82% 30.06 in 2.8 mi Variable 1.2 mph - N/A   Overcast
11:30 PM 48.2 °F - 44.6 °F 87% 30.06 in 2.8 mi Variable 1.2 mph - N/A   Mostly Cloudy